• In Denmark
  • List of Countries
  • For 7 days
  • Water Temperature
  • Satellite Maps
  • Weather Map
  • Weather Widgets
  • user-avatar
    Login

    Hourly Weather Nazaret

    Today, 21 January, Sunday

    Time Temperature Precipitation Wind Pressure Humidity
    00:00 +10°C° 0 mm 2 mps 734 mmHg 75%
    01:00 +10°C° 0 mm 2 mps 733 mmHg 74%
    02:00 +9°C° 0 mm 2 mps 733 mmHg 74%
    03:00 +9°C° 0 mm 3 mps 733 mmHg 72%
    04:00 +9°C° 0 mm 3 mps 733 mmHg 71%
    05:00 +9°C° 0 mm 3 mps 733 mmHg 69%
    06:00 +9°C° 0 mm 3 mps 733 mmHg 67%
    07:00 +10°C° 0 mm 3 mps 733 mmHg 65%
    08:00 +10°C° 0 mm 4 mps 733 mmHg 63%
    09:00 +12°C° 0 mm 4 mps 732 mmHg 56%
    10:00 +14°C° 0 mm 4 mps 732 mmHg 49%
    11:00 +17°C° 0 mm 4 mps 732 mmHg 43%
    12:00 +18°C° 0 mm 4 mps 732 mmHg 40%
    13:00 +18°C° 0 mm 4 mps 731 mmHg 38%
    14:00 +19°C° 0 mm 4 mps 731 mmHg 35%
    15:00 +18°C° 0 mm 3 mps 730 mmHg 37%
    16:00 +17°C° 0 mm 3 mps 730 mmHg 39%
    17:00 +16°C° 0 mm 3 mps 730 mmHg 41%
    18:00 +14°C° 0 mm 3 mps 729 mmHg 41%
    19:00 +14°C° 0 mm 3 mps 729 mmHg 41%
    20:00 +13°C° 0 mm 3 mps 729 mmHg 41%
    21:00 +13°C° 0 mm 3 mps 728 mmHg 41%
    22:00 +12°C° 0 mm 3 mps 728 mmHg 41%
    23:00 +12°C° 0 mm 3 mps 728 mmHg 42%

    Tomorrow, 22 January, Monday

    Time Temperature Precipitation Wind Pressure Humidity
    00:00 +12°C° 0 mm 3 mps 728 mmHg 41%
    01:00 +12°C° 0 mm 3 mps 727 mmHg 40%
    02:00 +11°C° 0 mm 3 mps 727 mmHg 39%
    03:00 +11°C° 0 mm 3 mps 727 mmHg 39%
    04:00 +11°C° 0 mm 3 mps 726 mmHg 38%
    05:00 +11°C° 0 mm 4 mps 726 mmHg 38%
    06:00 +11°C° 0 mm 4 mps 726 mmHg 39%
    07:00 +12°C° 0 mm 4 mps 726 mmHg 41%
    08:00 +13°C° 0 mm 4 mps 726 mmHg 42%
    09:00 +14°C° 0 mm 5 mps 726 mmHg 42%
    10:00 +16°C° 0 mm 6 mps 727 mmHg 41%
    11:00 +17°C° 0 mm 7 mps 727 mmHg 41%
    12:00 +17°C° 0 mm 7 mps 726 mmHg 42%
    13:00 +17°C° 0 mm 7 mps 726 mmHg 44%
    14:00 +17°C° 0 mm 7 mps 725 mmHg 46%
    15:00 +16°C° 0 mm 6 mps 725 mmHg 51%
    16:00 +15°C° 0 mm 6 mps 725 mmHg 56%
    17:00 +13°C° 0 mm 5 mps 725 mmHg 61%
    18:00 +13°C° 0 mm 4 mps 725 mmHg 61%
    19:00 +12°C° 0 mm 4 mps 725 mmHg 62%
    20:00 +12°C° 0 mm 4 mps 725 mmHg 62%
    21:00 +12°C° 0 mm 4 mps 725 mmHg 61%
    22:00 +12°C° 0 mm 5 mps 725 mmHg 59%
    23:00 +11°C° 0 mm 6 mps 725 mmHg 58%

    Day after tomorrow, 23 January, Tuesday

    Time Temperature Precipitation Wind Pressure Humidity
    00:00 +11°C° 0.6 mm 6 mps 725 mmHg 61%
    01:00 +11°C° 0.6 mm 7 mps 724 mmHg 65%
    02:00 +11°C° 0.6 mm 8 mps 724 mmHg 68%
    03:00 +11°C° 1.4 mm 8 mps 724 mmHg 72%
    04:00 +11°C° 1.4 mm 8 mps 724 mmHg 76%
    05:00 +11°C° 1.4 mm 8 mps 724 mmHg 81%
    06:00 +11°C° 0.7 mm 8 mps 724 mmHg 80%
    07:00 +11°C° 0.7 mm 8 mps 725 mmHg 78%
    08:00 +11°C° 0.7 mm 8 mps 725 mmHg 77%
    09:00 +11°C° 0.8 mm 8 mps 726 mmHg 77%
    10:00 +11°C° 0.8 mm 8 mps 726 mmHg 78%
    11:00 +11°C° 0.8 mm 8 mps 726 mmHg 78%
    12:00 +11°C° 0.7 mm 8 mps 726 mmHg 78%
    13:00 +11°C° 0.7 mm 7 mps 726 mmHg 79%
    14:00 +11°C° 0.7 mm 7 mps 726 mmHg 79%
    15:00 +11°C° 0.3 mm 7 mps 726 mmHg 79%
    16:00 +11°C° 0.3 mm 6 mps 726 mmHg 79%
    17:00 +11°C° 0.3 mm 6 mps 727 mmHg 79%
    18:00 +10°C° 0.1 mm 6 mps 727 mmHg 80%
    19:00 +10°C° 0.1 mm 5 mps 727 mmHg 81%
    20:00 +10°C° 0.1 mm 5 mps 728 mmHg 82%
    21:00 +9°C° 0.1 mm 5 mps 728 mmHg 82%
    22:00 +9°C° 0.1 mm 5 mps 728 mmHg 82%
    23:00 +9°C° 0.1 mm 5 mps 728 mmHg 81%

    24 January, Wednesday

    Time Temperature Precipitation Wind Pressure Humidity
    00:00 +9°C° 0.1 mm 5 mps 728 mmHg 82%
    01:00 +9°C° 0.1 mm 5 mps 728 mmHg 82%
    02:00 +9°C° 0.1 mm 5 mps 728 mmHg 82%
    03:00 +9°C° 0.1 mm 5 mps 728 mmHg 82%
    04:00 +9°C° 0.1 mm 5 mps 728 mmHg 82%
    05:00 +9°C° 0.1 mm 5 mps 728 mmHg 82%
    06:00 +10°C° 0.1 mm 4 mps 729 mmHg 81%
    07:00 +11°C° 0.1 mm 4 mps 729 mmHg 80%
    08:00 +11°C° 0.1 mm 4 mps 729 mmHg 78%
    09:00 +12°C° 0.1 mm 5 mps 729 mmHg 75%
    10:00 +12°C° 0.1 mm 5 mps 730 mmHg 71%
    11:00 +13°C° 0.1 mm 5 mps 730 mmHg 68%
    12:00 +13°C° 0.1 mm 5 mps 729 mmHg 67%
    13:00 +13°C° 0.1 mm 5 mps 729 mmHg 67%
    14:00 +13°C° 0.1 mm 5 mps 729 mmHg 66%
    15:00 +13°C° 0.1 mm 5 mps 729 mmHg 69%
    16:00 +12°C° 0.1 mm 4 mps 729 mmHg 72%
    17:00 +11°C° 0.1 mm 3 mps 729 mmHg 74%
    18:00 +11°C° 0.1 mm 3 mps 729 mmHg 76%
    19:00 +11°C° 0.1 mm 3 mps 729 mmHg 77%
    20:00 +10°C° 0.1 mm 2 mps 729 mmHg 79%
    21:00 +10°C° 0.1 mm 2 mps 729 mmHg 80%
    22:00 +10°C° 0.1 mm 2 mps 729 mmHg 81%
    23:00 +10°C° 0.1 mm 2 mps 729 mmHg 82%

    25 January, Thursday

    Time Temperature Precipitation Wind Pressure Humidity
    00:00 +10°C° 0.2 mm 2 mps 728 mmHg 83%
    01:00 +9°C° 0.2 mm 3 mps 728 mmHg 83%
    02:00 +9°C° 0.2 mm 3 mps 728 mmHg 84%
    03:00 +9°C° 0.3 mm 3 mps 728 mmHg 84%
    04:00 +9°C° 0.3 mm 3 mps 727 mmHg 84%
    05:00 +9°C° 0.3 mm 3 mps 727 mmHg 84%
    06:00 +9°C° 1.1 mm 3 mps 727 mmHg 84%
    07:00 +9°C° 1.1 mm 3 mps 727 mmHg 84%
    08:00 +9°C° 1.1 mm 3 mps 727 mmHg 84%
    09:00 +10°C° 1.1 mm 3 mps 727 mmHg 82%
    10:00 +10°C° 1.1 mm 3 mps 727 mmHg 80%
    11:00 +10°C° 1.1 mm 3 mps 727 mmHg 79%
    12:00 +10°C° 1.5 mm 4 mps 727 mmHg 79%
    13:00 +9°C° 1.5 mm 5 mps 726 mmHg 79%
    14:00 +9°C° 1.5 mm 6 mps 726 mmHg 79%
    15:00 +9°C° 1.7 mm 6 mps 726 mmHg 80%
    16:00 +9°C° 1.7 mm 6 mps 726 mmHg 81%
    17:00 +9°C° 1.7 mm 7 mps 726 mmHg 81%
    18:00 +9°C° 0.6 mm 7 mps 726 mmHg 82%
    19:00 +8°C° 0.6 mm 7 mps 727 mmHg 82%
    20:00 +8°C° 0.6 mm 6 mps 727 mmHg 83%
    21:00 +8°C° 0.9 mm 7 mps 727 mmHg 82%
    22:00 +8°C° 0.9 mm 7 mps 727 mmHg 81%
    23:00 +7°C° 0.9 mm 8 mps 727 mmHg 80%

    26 January, Friday

    Time Temperature Precipitation Wind Pressure Humidity
    00:00 +8°C° 0.5 mm 7 mps 727 mmHg 80%
    01:00 +6°C° 0.5 mm 7 mps 727 mmHg 80%
    02:00 +6°C° 0.5 mm 7 mps 727 mmHg 80%
    03:00 +6°C° 0.5 mm 7 mps 727 mmHg 80%
    04:00 +6°C° 0.5 mm 7 mps 727 mmHg 81%
    05:00 +5°C° 0.5 mm 6 mps 727 mmHg 81%
    06:00 +5°C° 0.8 mm 6 mps 728 mmHg 82%
    07:00 +5°C° 0.8 mm 6 mps 728 mmHg 82%
    08:00 +5°C° 0.8 mm 6 mps 728 mmHg 83%
    09:00 +5°C° 1.6 mm 6 mps 728 mmHg 84%
    10:00 +5°C° 1.6 mm 7 mps 728 mmHg 85%
    11:00 +5°C° 1.6 mm 7 mps 728 mmHg 86%
    12:00 +6°C° 2.1 mm 8 mps 728 mmHg 84%
    13:00 +6°C° 2.1 mm 8 mps 727 mmHg 81%
    14:00 +6°C° 2.1 mm 9 mps 727 mmHg 79%
    15:00 +6°C° 1 mm 9 mps 727 mmHg 79%
    16:00 +6°C° 1 mm 8 mps 727 mmHg 78%
    17:00 +6°C° 1 mm 8 mps 727 mmHg 78%
    18:00 +6°C° 0.6 mm 7 mps 727 mmHg 78%
    19:00 +6°C° 0.6 mm 7 mps 728 mmHg 79%
    20:00 +5°C° 0.6 mm 6 mps 728 mmHg 80%
    21:00 +5°C° 0.9 mm 6 mps 728 mmHg 81%
    22:00 +7°C° 0.9 mm 6 mps 728 mmHg 83%
    23:00 +7°C° 0.9 mm 6 mps 728 mmHg 84%
    Show more